Regional Weather Roundup
Issued by NWS

Home | Current Version | Previous Version | Text Only | Print | Product List | Glossary Off
Versions: 1 2 3 4 5 6 7 8 9 10 11 12 13 14 15 16 17 18 19 20 21 22 23 24 25 26 27 28 29 30 31 32 33 34 35 36 37 38 39 40 41 42 43 44 45 46 47 48 49 50

000
ASUS43 KOAX 120102
RWRNE

WEATHER ROUNDUP FOR NEBRASKA
NATIONAL WEATHER SERVICE OMAHA NE
800 PM CDT FRI JUL 11 2014

NOTES: SATELLITE DATA IS BEING USED TO AUGMENT CLOUD COVER ABOVE
       12000 FEET.
       "FAIR" INDICATES FEW OR NO CLOUDS BELOW 12,000 FEET WITH NO
       SIGNIFICANT WEATHER AND/OR OBSTRUCTIONS TO VISIBILITY.

  * THESE STATIONS DO NOT REPORT WEATHER SUCH AS RAIN...SNOW OR FOG.

NEZ001>004-019>022-054>056-120200-
NEBRASKA PANHANDLE

CITY           SKY/WX    TMP DP  RH WIND       PRES   REMARKS
SCOTTSBLUFF    CLOUDY    75  66  73 CALM      30.09R
ALLIANCE       CLOUDY    68  65  90 N9        30.08R
CHADRON        CLOUDY    67  62  84 N12       30.11R
KIMBALL        CLOUDY    69  65  86 NW3       30.12F
SIDNEY         LGT RAIN  71  64  78 NW12      30.13R
$$

NEZ057>060-069>072-079>082-120200-
SOUTHWEST NEBRASKA

CITY           SKY/WX    TMP DP  RH WIND       PRES   REMARKS
NORTH PLATTE   MOSUNNY   82  67  60 E10       29.97R
IMPERIAL       MOSUNNY   84  68  58 NE16      29.96R
LEXINGTON      SUNNY     84  76  76 NE15      29.95R HX  94
MCCOOK         MOSUNNY   91  55  29 S14       29.92R
OGALLALA       CLOUDY    81  65  58 NE6       30.00S
$$

NEZ005>010-023>029-035>040-094-120200-
NORTH CENTRAL NEBRASKA

CITY           SKY/WX    TMP DP  RH WIND       PRES   REMARKS
VALENTINE      CLOUDY    82  68  62 E7        30.01R
AINSWORTH      CLOUDY    76  71  85 E3        30.01S
BROKEN BOW     MOSUNNY   82  74  76 E6        29.98R
O`NEILL        CLOUDY    79  71  74 SE9       30.01R
ORD            MOSUNNY   78  72  81 E7        29.96R
THEDFORD       PTSUNNY   83  67  58 NE9       30.01R
$$

NEZ041-046>049-061>064-073>077-083>087-120200-
SOUTH CENTRAL NEBRASKA

CITY           SKY/WX    TMP DP  RH WIND       PRES   REMARKS
GRAND ISLAND   SUNNY     85  75  72 E8        29.95R HX  93
AURORA         SUNNY     85  75  72 E9        29.95R HX  94
HASTINGS       SUNNY     88  72  58 SE6       29.94R HX  94
HEBRON         CLEAR     90  66  44 S9        29.93S HX  93
HOLDREGE       SUNNY     90  61  38 S8        29.93R
KEARNEY *      SUNNY     84  73  70 E10       29.95R HX  91
YORK           CLEAR     84  77  79 E8        29.95R HX  94
$$

NEZ011>018-030>034-042>045-120200-
NORTHEAST NEBRASKA

CITY           SKY/WX    TMP DP  RH WIND       PRES   REMARKS
NORFOLK        CLOUDY    78  72  81 E5        29.99R
ALBION         PTSUNNY   78  71  79 E6        29.98S
BLAIR          PTCLDY    78  71  80 E8        29.98S
TEKAMAH        MOCLDY    78  72  81 E5        29.98S
WAYNE          CLOUDY    76  73  89 CALM      30.00R
$$

NEZ050>053-065>068-078-088>093-120200-
SOUTHEAST NEBRASKA

CITY           SKY/WX    TMP DP  RH WIND       PRES   REMARKS
LINCOLN        CLEAR     87  75  67 NE13      29.96R HX  96
OMAHA EPPLEY   MOCLDY    81  73  76 E7        29.97F
BEATRICE       PTCLDY    88  73  61 S7        29.94R HX  95
FALLS CITY     PTCLDY    88  75  65 S9        29.95S HX  97
NEBRASKA CITY  PTCLDY    84  78  82 E3        29.96S HX  95
PLATTSMOUTH    PTCLDY    83  75  77 NE7       29.98S HAZE    HX  90
$$

NEZ044-045-051>053-067-120200-
OMAHA AREA

CITY           SKY/WX    TMP DP  RH WIND       PRES   REMARKS
OMAHA EPPLEY   MOCLDY    81  73  76 E7        29.97F
BLAIR          PTCLDY    78  71  80 E8        29.98S
MILLARD        PTCLDY    83  74  74 E3        29.96S
OFFUTT AFB     PTCLDY    83  79  90 E7        29.97S HX  94
PLATTSMOUTH    PTCLDY    83  75  77 NE7       29.98S HAZE    HX  90
WAHOO          FAIR      83  73  73 E7        29.96S
$$



USA.gov is the U.S. government's official web portal to all federal, state and local government web resources and services.